RH
6 5 5 5 6 7 8 9 14 23 30 33 36 38 38 34 32 33 33 31 29 28 27 24 17 8 7 9 9 8 8 7 4 16 25 14 17 19 11 11 9 8 8 9 19 27 30 30 25 21 17 13 11 10 11 12 11 10 10 11 9 6 5 4 3 4 3 6 6 7 6 5 9 14 21 22 21 22 24 33 38 38 47 59 69 75 81 94
9 6 5 5 6 6 7 8 9 15 21 28 31 35 38 36 33 32 33 33 30 31 28 27 25 15 9 7 8 8 6 7 8 14 19 14 16 15 11 11 9 9 7 13 23 24 24 24 20 19 14 11 9 8 10 12 11 10 9 8 8 5 5 4 4 4 4 6 6 7 6 5 8 12 19 22 21 22 21 29 36 39 49 62 77 83 87 98
12 10 7 5 6 6 7 8 8 10 13 18 22 30 35 36 35 32 32 33 32 33 31 29 27 22 17 9 7 7 4 11 23 25 18 18 18 13 11 9 9 9 8 16 21 19 19 18 17 16 12 9 9 8 10 11 11 10 8 7 6 4 4 5 5 5 5 7 7 7 6 6 7 10 17 19 21 22 20 24 29 36 45 56 73 81 87 99
15 13 11 8 7 7 8 8 9 9 10 11 14 23 29 34 35 33 32 32 34 33 32 32 27 26 24 15 7 5 12 23 32 33 25 22 20 14 9 8 10 8 12 21 18 15 15 13 14 13 10 8 8 8 9 10 10 8 8 7 5 4 5 5 6 5 6 7 7 7 7 6 6 9 13 15 20 21 17 18 23 33 43 53 72 83 87 97
15 14 14 12 9 8 9 10 10 9 10 9 10 15 23 30 32 33 33 31 33 32 32 31 27 27 23 22 15 7 24 32 31 32 25 25 23 16 9 8 10 8 18 25 15 13 13 11 12 11 10 8 7 8 9 10 10 9 7 6 5 5 6 6 6 6 6 7 7 7 6 6 6 7 9 12 16 17 15 15 17 28 40 49 67 82 89 97
15 14 14 14 12 10 10 10 11 11 10 10 10 10 14 22 27 31 33 31 31 31 31 28 27 27 22 26 18 15 33 28 27 33 24 26 27 20 13 9 9 10 22 23 14 14 12 11 11 10 9 7 7 7 8 9 10 10 7 6 6 6 7 7 6 6 7 6 6 6 6 6 6 6 7 10 11 12 16 17 15 22 33 43 61 75 86 94
14 14 14 14 14 12 12 11 12 11 10 11 10 10 11 13 20 27 31 31 31 30 29 27 26 25 24 25 21 36 49 27 24 32 22 26 28 21 17 12 8 13 24 21 13 13 11 11 10 9 8 7 7 6 8 8 8 10 7 7 7 6 7 7 7 7 7 6 6 6 7 7 6 6 6 7 8 10 16 19 17 22 33 45 58 69 79 87
13 13 13 13 13 13 13 12 12 13 12 11 10 11 10 10 13 18 25 30 31 30 29 28 26 25 25 23 31 47 44 29 29 26 21 27 26 22 19 14 10 16 25 19 13 13 10 10 10 8 8 7 7 6 8 8 7 9 8 7 6 6 7 7 7 7 6 6 6 6 6 7 7 6 6 6 7 9 14 17 14 21 38 51 58 66 73 81
13 12 12 12 13 13 13 13 12 13 14 13 11 11 10 10 10 12 19 25 29 29 29 29 26 26 23 22 36 38 26 28 28 17 20 28 26 25 22 17 17 22 25 17 13 12 10 10 10 8 7 7 6 6 7 7 7 9 9 7 6 7 8 7 7 6 6 6 6 6 6 7 6 6 6 6 6 10 14 14 13 23 40 49 58 68 71 74
12 11 12 11 11 12 12 13 12 13 15 15 13 12 11 10 10 10 13 18 24 27 28 28 25 24 26 35 41 29 20 28 27 20 24 28 28 27 25 23 23 24 20 15 14 11 10 10 9 8 8 8 7 6 7 7 8 8 9 7 5 7 8 8 7 6 6 6 5 5 5 6 6 6 7 6 6 11 12 11 14 26 38 43 55 68 70 69
11 11 11 10 11 11 11 12 13 13 15 17 17 16 16 14 12 11 10 13 17 22 24 23 24 22 29 47 42 22 20 25 30 35 31 27 28 27 27 25 22 21 16 15 14 11 11 10 9 9 8 9 8 8 7 8 9 8 7 7 6 6 7 7 6 6 6 5 5 5 5 5 5 6 6 5 7 11 11 11 15 26 38 42 53 65 67 69
11 11 11 10 10 10 11 11 12 13 13 18 22 23 25 24 23 21 18 18 17 19 20 21 25 23 35 51 38 23 24 23 29 40 38 32 30 29 27 24 21 19 17 16 14 12 11 10 12 11 9 10 8 8 7 8 9 7 7 7 6 6 7 7 6 6 6 5 6 6 6 5 5 6 6 5 9 11 9 12 15 24 38 43 52 62 62 70
11 11 10 10 10 10 10 10 10 12 12 15 21 28 33 33 33 32 29 27 24 24 23 25 27 27 45 50 30 25 25 21 27 35 41 38 32 30 26 23 21 19 18 17 14 12 11 12 15 12 11 11 8 8 8 7 8 7 7 7 7 6 6 6 5 5 5 5 5 5 7 6 4 5 5 6 11 12 9 13 16 24 39 44 51 58 59 74
12 11 11 10 10 10 9 10 10 11 12 12 16 23 30 33 33 31 29 27 27 29 28 30 29 35 59 48 24 27 24 21 26 29 36 37 31 27 23 22 21 20 21 19 15 12 12 14 17 15 14 13 9 9 8 7 7 6 6 6 6 7 6 5 4 5 5 5 5 6 8 6 4 5 4 5 11 13 11 13 16 25 39 44 50 54 60 77
12 12 11 11 10 10 10 10 9 10 11 11 12 15 20 27 31 29 27 27 31 34 34 38 40 52 66 46 27 29 22 20 24 25 31 32 28 23 21 21 19 20 21 20 17 13 14 16 16 15 13 12 10 10 8 8 7 6 7 7 6 6 6 5 4 5 4 5 5 6 7 6 4 4 3 5 9 12 11 12 17 26 37 44 49 54 62 76
13 12 12 12 11 10 10 9 9 10 9 10 12 12 13 16 22 25 25 29 37 41 44 52 60 67 59 37 32 32 23 21 19 21 28 29 26 21 19 19 18 20 19 18 16 14 16 16 15 14 11 10 10 9 8 8 8 7 7 8 7 6 5 4 4 5 4 5 5 5 7 5 4 4 4 8 10 11 9 10 18 25 34 41 48 56 65 75
12 12 12 12 12 11 10 10 9 9 9 10 10 10 12 13 18 23 24 30 39 44 51 62 70 71 56 32 27 26 21 22 19 21 27 26 24 18 16 17 17 18 17 16 16 15 15 14 14 14 12 11 8 8 9 11 10 8 7 8 8 6 5 5 5 5 5 5 5 6 6 4 6 6 9 12 9 10 9 9 18 27 33 40 49 59 66 74
12 12 11 11 12 11 11 10 9 9 9 9 9 11 11 9 12 17 24 36 48 56 62 69 69 60 46 29 21 18 18 20 21 24 26 25 23 17 14 15 15 15 15 15 15 15 14 13 13 12 12 11 9 9 11 11 10 10 9 8 8 7 6 5 5 7 5 5 6 7 7 5 6 7 11 13 9 11 10 10 21 30 34 40 48 58 64 70
12 11 10 10 11 10 11 11 10 9 8 9 10 9 9 15 23 28 42 59 62 58 54 59 58 41 27 22 18 18 19 20 22 25 26 25 22 15 13 13 13 14 14 14 14 14 13 14 14 13 13 11 10 9 9 9 7 8 9 7 8 7 7 5 5 7 6 7 7 7 8 7 6 5 9 13 12 12 10 13 25 33 35 39 45 53 60 66
12 11 10 10 10 10 11 10 11 10 9 10 7 10 24 38 44 49 64 72 61 44 32 33 36 27 19 19 17 17 21 21 21 23 25 24 19 12 11 11 11 13 13 13 14 13 13 15 15 14 13 11 11 10 10 11 9 10 9 7 7 7 8 5 5 9 8 10 9 7 8 7 8 6 6 13 17 15 12 15 27 34 35 37 40 48 58 64
13 12 10 10 9 9 10 10 11 10 9 10 8 19 33 32 29 38 48 47 40 35 30 27 25 22 19 19 20 19 19 19 17 20 24 22 15 11 10 10 11 13 13 12 14 14 14 17 16 12 12 12 12 12 14 16 15 13 11 9 8 7 8 5 6 9 9 12 11 9 9 8 9 6 7 16 21 18 15 18 27 32 33 34 37 43 52 61
14 12 10 11 10 9 9 9 10 10 11 10 8 19 28 24 27 35 34 27 25 26 26 25 23 22 21 20 22 22 18 17 16 18 23 20 13 10 10 9 10 12 12 13 15 18 18 17 15 11 12 14 16 15 16 18 17 14 11 10 9 8 7 7 8 9 10 13 11 9 10 10 9 7 11 20 22 19 17 21 27 29 30 31 33 41 51 59
15 12 10 11 10 9 9 9 10 9 11 8 10 23 27 27 32 32 32 30 26 23 20 21 21 21 22 20 21 23 19 16 16 18 22 19 12 11 10 9 10 11 12 14 16 20 19 15 12 10 13 17 19 18 17 17 16 14 12 10 10 8 7 10 12 11 11 12 11 11 12 11 9 10 16 20 21 21 22 24 27 29 29 29 33 43 54 60
15 12 11 11 9 11 9 7 8 8 10 8 13 27 26 24 31 33 35 34 28 25 21 18 19 18 20 19 21 23 19 16 16 18 21 19 12 11 11 10 10 12 12 13 15 16 15 12 10 11 14 17 18 17 16 16 14 13 13 11 10 9 7 9 13 13 13 13 13 13 14 12 12 16 18 22 27 29 29 28 29 31 31 33 38 46 56 62
15 12 11 9 10 11 6 12 24 24 24 22 18 23 26 27 35 38 41 39 30 25 21 18 18 18 20 22 24 22 17 17 16 17 21 20 14 11 11 10 11 12 12 12 13 12 11 13 12 13 15 15 15 15 15 15 13 13 13 12 11 11 9 10 13 16 17 17 14 13 15 14 15 18 18 22 29 29 29 29 32 34 34 37 42 47 56 62
14 12 11 10 11 9 7 31 53 40 26 25 22 25 32 34 37 42 46 42 30 22 20 20 20 20 23 25 25 21 17 17 14 17 21 20 15 12 11 11 10 11 11 10 12 11 10 13 13 13 15 13 13 14 14 13 13 12 11 11 11 12 12 12 15 17 17 19 15 12 14 16 16 16 14 20 22 21 26 32 33 35 39 42 43 50 59 64
13 12 12 10 10 8 10 28 41 26 15 20 24 29 32 32 40 50 51 42 28 19 19 20 22 22 23 22 20 18 18 16 14 17 20 20 17 13 11 11 9 10 10 10 13 11 10 14 13 13 14 14 13 14 14 12 12 14 13 11 11 13 14 14 15 15 14 17 18 14 11 15 18 14 14 20 20 22 30 35 36 34 38 44 49 62 72 74
13 13 12 12 11 9 10 12 15 16 19 24 27 31 28 30 45 53 52 45 25 14 17 20 21 20 20 21 18 15 16 14 14 17 19 20 18 13 11 10 9 9 9 11 15 13 11 13 15 14 14 15 13 12 13 12 12 15 15 11 10 11 13 13 13 14 14 16 20 17 11 15 22 18 19 22 21 26 30 34 43 43 41 51 64 77 83 83
13 12 12 12 8 9 9 5 7 13 21 28 32 28 20 30 49 49 48 45 23 11 17 20 19 18 18 20 16 13 14 13 14 16 18 19 18 14 11 10 9 9 9 11 13 13 12 12 12 12 13 13 12 10 10 11 12 14 14 11 10 10 11 12 13 13 15 19 21 18 13 15 19 20 20 21 20 26 31 34 42 45 43 54 71 81 82 83
12 11 12 10 10 21 20 11 13 14 18 26 24 18 20 35 48 46 47 41 19 11 16 17 19 17 17 18 15 14 13 13 14 15 17 18 17 15 12 11 10 9 10 10 11 12 12 12 11 11 11 11 12 11 10 10 10 13 14 12 11 12 12 13 14 14 19 23 20 17 16 15 19 23 20 18 17 19 31 42 39 35 36 44 61 73 75 79
11 10 12 9 9 21 25 26 36 33 24 18 11 14 30 40 41 43 44 28 11 13 16 16 18 17 17 17 15 14 12 13 15 16 17 16 16 16 13 13 13 12 14 13 12 11 11 14 13 11 11 11 12 13 12 10 8 12 14 12 13 14 14 15 15 16 22 25 18 13 15 17 22 27 22 20 20 17 26 38 33 30 34 38 45 56 66 77
11 11 11 10 8 10 15 27 42 41 26 15 13 22 34 41 42 41 34 18 11 15 14 14 16 15 17 15 12 13 13 14 15 15 17 16 16 16 14 14 14 16 19 17 15 13 12 13 11 10 11 11 13 13 11 10 10 13 13 14 18 18 20 22 20 18 21 22 18 13 16 19 20 27 32 31 31 29 31 35 34 35 39 39 37 45 64 80
11 10 8 9 10 11 14 20 29 28 18 15 21 26 32 42 45 36 24 16 14 13 12 14 15 13 15 16 14 12 12 14 14 14 16 15 16 16 13 12 12 16 18 17 17 16 15 14 10 11 11 10 12 12 13 13 11 13 13 15 19 21 26 28 23 21 20 19 17 15 19 21 18 26 36 36 36 39 39 39 41 39 40 41 38 44 64 80
9 9 11 10 12 20 26 32 36 25 14 20 26 25 35 46 39 26 20 16 11 10 13 14 13 13 14 14 15 13 13 15 13 14 16 15 17 18 15 12 11 14 16 17 17 16 17 17 12 12 12 11 11 10 12 12 11 12 11 12 17 22 30 28 23 24 22 20 20 20 23 20 19 29 34 32 36 39 40 42 44 42 42 44 43 45 55 69
11 9 10 15 27 37 39 44 47 33 22 27 25 22 36 43 31 22 19 14 9 10 12 12 12 15 14 12 13 13 14 15 12 14 16 16 18 19 17 15 13 13 15 19 20 16 17 17 11 10 11 10 11 10 9 11 14 13 10 12 16 19 23 23 23 27 25 23 23 23 23 16 18 29 31 31 36 37 39 43 44 46 48 48 49 50 51 60
23 28 27 37 55 60 53 48 46 38 32 30 24 22 29 29 22 18 14 11 10 8 9 12 12 14 14 13 14 13 13 15 14 15 16 15 17 18 17 15 12 13 14 18 20 18 18 17 11 9 10 9 10 10 8 11 16 17 14 14 14 12 15 19 23 26 24 23 23 23 22 17 18 24 23 26 34 35 38 42 45 50 53 50 52 56 57 61
35 54 54 57 63 59 55 50 43 43 38 27 24 24 20 18 17 14 10 9 11 8 9 13 12 12 15 14 14 15 15 16 16 16 17 17 17 17 17 16 13 12 12 14 19 19 19 19 12 10 12 11 10 9 9 9 12 20 23 16 11 11 13 16 22 24 23 22 19 18 21 20 20 23 23 23 30 34 35 41 49 55 55 53 52 57 62 64
38 60 59 56 56 48 43 40 41 49 41 25 25 25 17 14 14 12 10 10 11 11 11 12 11 10 12 13 15 14 14 18 23 23 18 18 21 20 16 17 15 12 11 12 17 18 17 21 17 12 12 11 9 11 13 10 8 14 18 13 13 18 17 17 21 23 25 25 19 18 21 20 17 21 23 22 27 36 37 39 46 50 52 55 55 56 60 63
49 61 56 57 57 43 32 35 47 51 36 22 24 24 17 14 12 11 11 11 12 12 11 10 9 9 10 11 13 12 14 19 23 25 20 19 30 29 17 16 16 13 12 11 15 17 19 27 25 15 11 11 11 13 15 14 11 10 11 11 14 18 17 18 20 20 21 24 24 22 20 19 20 21 21 24 31 37 37 37 41 45 48 54 56 55 58 62
56 53 53 62 55 37 35 49 58 49 31 22 20 16 14 13 11 11 13 14 13 12 11 10 8 10 11 10 10 11 15 16 18 27 28 24 31 30 17 16 17 13 14 14 14 17 20 27 29 20 13 13 14 14 13 14 13 13 14 14 14 15 16 19 22 21 20 22 24 23 22 27 35 29 23 34 42 41 43 45 45 48 50 53 57 57 57 60
54 40 47 59 49 41 55 66 57 38 28 23 16 12 12 11 11 12 13 15 14 11 11 12 10 12 13 11 11 12 14 14 19 30 35 34 40 36 20 18 18 14 17 17 15 20 23 24 28 26 22 20 17 12 10 11 12 14 15 14 14 15 16 20 24 23 23 23 22 21 26 37 44 34 28 38 43 41 47 51 48 50 54 57 61 59 57 59
46 34 45 55 49 50 61 59 44 33 29 23 15 11 12 12 13 14 13 14 15 13 11 14 14 14 15 13 11 11 12 13 16 21 26 35 47 44 30 24 19 14 17 19 20 29 31 27 27 28 26 25 20 11 10 12 10 11 13 13 14 15 17 21 23 22 21 22 20 17 23 36 41 36 31 34 38 43 50 50 48 54 59 61 64 61 58 60
34 34 46 55 57 57 56 48 37 33 31 23 15 12 12 15 17 16 14 15 17 14 12 14 16 15 15 14 13 11 11 14 14 15 22 33 38 33 29 29 24 18 18 21 26 31 30 27 29 29 24 22 17 11 12 13 10 13 15 13 15 18 19 21 22 24 23 22 23 20 22 35 40 37 34 31 37 48 54 52 51 55 61 64 65 64 63 65
31 37 43 47 56 57 52 47 39 36 33 27 24 21 15 14 16 16 14 14 16 15 13 14 14 14 12 12 14 13 12 16 16 14 20 30 32 25 23 26 25 21 19 21 28 30 26 27 32 34 36 34 26 18 16 14 12 16 15 14 16 16 18 21 23 27 28 26 25 21 27 42 45 39 36 32 38 53 61 62 61 59 63 65 63 66 69 72
30 32 34 39 50 50 46 47 45 44 40 33 33 30 21 17 19 20 18 16 16 15 16 16 13 14 14 11 15 14 11 16 19 17 17 20 23 22 21 23 22 21 21 23 27 27 27 33 35 36 44 50 44 34 28 22 18 18 16 17 19 15 16 23 23 24 28 26 22 25 38 52 48 39 35 34 45 63 66 63 61 61 63 64 64 67 70 71
27 27 30 35 45 46 45 47 47 46 40 36 36 33 28 25 22 21 20 21 20 16 17 18 15 18 17 13 16 17 11 11 15 18 19 17 17 19 21 23 23 24 26 27 26 25 31 40 40 37 44 51 50 42 33 28 26 23 18 18 21 19 22 28 27 27 28 24 27 38 48 54 55 53 51 49 58 67 62 55 56 60 62 64 67 69 66 66
24 32 34 39 47 47 48 48 46 45 40 38 40 36 34 31 25 22 21 20 21 18 17 16 15 19 19 18 22 21 15 13 13 15 19 20 19 18 21 26 29 32 31 27 25 27 34 41 41 44 47 45 46 45 36 33 33 28 22 23 24 24 27 32 32 33 29 26 37 52 56 58 61 60 59 60 62 63 60 58 59 62 64 65 67 66 62 62
27 35 38 49 55 51 55 57 53 50 42 37 41 39 35 33 32 31 25 19 20 20 20 23 20 17 18 20 24 24 21 19 17 19 22 21 20 19 19 22 30 36 32 25 25 29 33 37 40 46 46 39 44 50 43 36 34 32 30 32 32 31 34 36 34 34 32 33 46 57 61 63 60 53 53 56 56 57 64 70 70 68 66 65 64 61 59 59
32 38 40 48 52 53 61 63 59 55 46 42 45 44 39 36 36 33 26 25 29 24 23 29 25 17 18 18 22 31 37 33 29 33 38 34 30 30 27 22 25 30 28 26 29 29 31 37 41 42 42 39 41 46 43 38 37 37 36 35 35 37 38 37 37 36 33 36 46 57 65 64 55 50 51 49 49 54 64 72 72 71 71 66 58 54 56 58
39 42 45 42 38 47 60 61 58 56 50 48 51 50 44 39 35 30 25 31 40 35 29 31 27 21 21 22 27 39 46 45 42 43 46 43 38 37 35 27 23 24 23 25 31 30 32 40 40 37 40 42 39 39 41 41 42 43 41 38 39 42 40 39 42 41 36 36 38 43 56 60 51 47 50 50 52 56 62 67 69 75 82 80 69 60 56 56
48 45 52 46 32 36 48 52 52 51 50 54 57 54 49 42 35 31 26 27 32 34 33 34 33 28 27 31 35 37 37 38 40 36 35 34 31 30 30 25 22 24 23 26 34 34 34 39 40 38 41 44 40 39 44 46 49 54 54 50 48 47 47 49 51 50 48 47 40 32 42 54 50 44 48 52 53 56 60 63 66 74 81 82 81 75 63 54
53 47 49 43 29 28 36 41 46 51 53 56 56 52 48 42 36 33 33 31 28 27 29 33 34 32 34 37 38 34 31 32 33 30 28 26 23 23 24 22 22 24 25 31 37 37 35 39 40 39 42 45 42 40 46 54 61 63 60 54 50 47 49 53 55 55 53 51 47 41 43 49 47 44 49 51 51 54 59 62 67 75 79 81 84 84 76 69
Wind_Speed
12 11 9 9 8 8 8 8 8 8 7 8 8 8 8 8 8 8 8 8 9 10 11 12 12 10 9 9 9 9 10 11 11 12 14 9 7 9 9 8 7 11 15 15 15 18 19 18 18 17 15 15 16 16 15 15 14 11 7 9 8 9 10 6 5 5 2 3 5 3 3 6 2 6 5 6 10 9 12 8 7 8 8 11 17 23 24 20
14 13 10 9 8 8 8 8 8 8 8 8 8 8 8 9 8 8 8 8 9 10 11 12 12 11 10 9 9 10 10 11 12 15 13 7 7 6 6 8 8 12 16 17 18 20 20 19 19 18 17 15 15 16 15 15 16 11 7 9 8 10 7 3 4 1 1 2 5 4 3 3 2 3 5 6 8 10 13 11 11 11 11 12 17 20 20 19
15 15 13 11 9 9 8 8 8 8 9 9 9 9 9 9 8 8 8 8 8 9 11 12 13 13 12 10 9 10 10 12 15 15 10 6 6 4 5 7 9 11 15 16 17 19 18 18 18 18 18 16 15 16 14 14 14 13 11 8 9 13 7 1 4 3 2 3 1 2 2 3 2 2 6 7 7 10 11 11 11 11 12 11 16 18 20 19
15 15 15 13 11 9 9 9 8 9 9 9 10 9 10 10 9 9 8 8 8 9 10 11 13 13 12 12 10 10 11 13 11 7 6 6 4 3 4 7 9 11 14 13 14 17 16 15 17 18 17 15 16 16 13 14 13 12 12 10 11 11 7 2 3 5 4 3 3 1 2 6 3 3 6 8 8 7 9 13 13 13 13 13 17 20 20 19
14 15 15 14 13 11 10 10 9 9 9 9 9 10 10 10 10 10 9 9 9 9 8 10 12 12 13 12 11 10 8 6 2 7 7 6 3 2 3 6 10 14 15 11 13 16 15 16 17 18 17 13 14 14 13 17 15 11 13 16 16 9 5 4 3 4 4 4 5 4 6 4 2 6 7 7 8 7 7 10 13 16 14 14 17 19 19 18
13 14 14 15 14 13 11 11 10 10 9 9 9 9 10 10 11 10 10 10 9 9 8 9 11 12 13 12 13 9 6 4 4 5 7 6 3 2 4 6 10 16 14 10 13 15 15 17 17 17 16 13 14 13 13 19 17 11 12 16 20 14 7 6 3 3 4 7 8 7 6 3 4 9 7 9 6 5 6 4 8 13 12 13 14 17 18 18
13 13 13 14 14 14 13 12 11 10 10 9 9 9 10 10 11 11 11 11 10 10 9 10 11 12 13 13 13 7 11 11 2 6 8 6 4 3 4 6 11 16 14 12 14 15 15 17 18 17 15 11 14 14 14 18 18 14 12 13 17 17 11 10 7 5 7 9 9 7 5 5 9 8 7 11 7 3 6 6 8 8 11 14 12 15 17 17
13 13 13 13 14 14 14 13 12 11 10 10 9 9 10 10 11 11 11 12 11 11 10 10 11 12 13 12 11 10 14 10 5 7 7 7 6 4 5 7 10 14 14 14 14 13 15 17 18 17 13 11 13 13 15 17 17 15 14 13 13 13 12 13 11 10 10 10 10 10 8 9 12 9 6 11 9 5 6 8 10 9 11 14 13 14 16 16
12 13 13 13 13 13 14 14 13 12 11 10 9 9 9 9 10 11 11 12 11 12 11 11 12 12 13 12 10 12 8 4 7 11 8 7 7 5 6 8 11 14 14 14 14 13 14 15 16 17 13 12 14 14 16 15 12 13 17 18 12 10 11 12 13 13 12 11 11 11 11 13 14 10 7 12 12 7 7 8 10 11 10 10 11 13 15 16
12 12 12 13 13 13 13 14 14 13 12 11 10 9 9 9 9 10 11 11 11 12 12 12 12 13 12 11 11 9 2 4 5 10 10 8 8 7 8 11 12 14 14 13 13 14 14 13 14 16 13 13 13 12 15 14 10 9 15 21 17 13 12 12 14 14 13 13 13 12 11 15 16 10 7 16 15 8 9 10 10 11 10 7 11 13 15 15
12 12 12 12 12 13 13 13 13 13 12 11 10 9 8 8 8 8 9 10 11 12 12 12 12 13 10 9 13 9 1 2 2 6 10 9 9 9 11 12 12 13 13 12 13 13 14 13 10 12 10 11 12 11 14 15 13 11 10 16 18 16 14 13 13 13 13 12 13 13 12 16 15 11 12 18 15 13 13 11 10 12 13 13 13 14 14 15
12 12 12 12 12 12 12 12 13 13 12 11 11 10 8 8 8 8 8 9 10 11 12 12 12 13 10 11 18 13 4 3 4 5 9 11 10 11 12 11 11 12 12 11 12 12 14 11 10 13 7 6 10 9 11 16 17 14 10 11 14 15 15 15 15 14 13 10 13 14 12 14 14 12 18 18 12 14 15 12 12 12 14 15 14 13 14 16
13 12 12 12 12 12 12 12 12 12 12 11 11 10 9 9 9 9 9 10 11 11 12 12 13 12 8 12 15 11 7 5 7 8 9 11 12 11 11 10 11 12 11 11 10 11 14 9 10 15 9 8 10 3 3 13 15 13 11 10 10 12 13 17 18 16 16 12 13 13 8 12 15 16 21 19 13 14 14 13 13 12 12 13 13 13 14 16
13 13 13 12 12 12 12 12 12 12 12 12 11 11 11 11 11 12 12 13 13 13 13 13 13 9 8 14 12 10 10 7 9 11 10 12 12 11 11 11 11 11 10 10 9 10 12 9 10 13 10 12 10 1 3 10 11 11 11 9 9 9 10 16 19 17 16 12 13 12 7 9 13 19 26 24 18 16 15 14 14 13 13 12 14 13 14 16
14 14 13 13 13 12 12 12 12 12 12 12 12 12 13 13 13 13 13 14 13 13 13 11 11 6 9 16 12 11 13 10 12 13 12 13 13 12 11 11 12 11 10 9 7 9 10 10 11 11 11 13 10 4 8 8 8 9 10 9 9 9 10 14 18 17 15 12 16 14 8 8 14 17 25 23 18 17 17 16 15 13 14 13 14 14 14 16
14 14 14 13 13 13 13 12 12 12 12 12 12 13 13 13 14 14 14 14 13 13 10 7 6 6 10 9 6 8 9 11 15 15 15 14 12 11 10 11 12 11 11 9 8 9 10 10 13 12 11 11 9 7 8 7 8 9 9 9 9 11 11 10 15 15 15 13 16 15 10 8 13 10 16 19 16 17 17 16 15 14 15 14 14 14 14 15
15 15 14 14 14 13 13 13 12 12 12 12 13 13 13 14 14 14 15 15 14 11 7 4 3 8 10 6 6 10 9 9 11 15 16 14 12 9 9 12 12 12 11 10 9 10 12 11 11 10 9 8 8 8 8 8 8 7 8 9 10 12 12 9 12 14 17 14 13 15 12 12 8 4 13 14 15 16 17 16 16 15 15 15 14 14 14 14
15 15 15 14 14 14 14 13 13 12 12 12 13 13 14 14 14 16 16 14 10 6 6 7 6 7 9 9 8 6 7 8 10 15 15 14 12 9 10 12 12 14 13 11 12 12 13 12 10 7 7 8 8 9 9 8 9 8 9 8 9 10 10 11 10 12 16 14 12 14 13 15 11 7 12 13 13 14 16 15 15 16 15 15 15 15 14 14
16 16 15 15 14 14 14 13 13 13 12 12 12 13 14 14 15 16 13 9 6 5 6 7 12 6 5 7 9 4 5 7 10 13 14 14 12 11 12 12 13 17 15 10 12 14 12 10 10 7 7 9 9 11 10 9 8 8 9 10 9 8 10 12 7 10 12 12 13 14 12 14 15 13 11 12 12 13 14 15 15 15 15 16 16 15 14 14
17 16 16 15 15 14 14 14 13 13 12 11 11 11 11 12 10 6 5 10 15 15 15 11 15 15 11 7 9 7 7 8 11 13 14 14 12 14 14 13 15 16 13 9 10 13 11 8 8 8 9 10 11 14 10 7 8 7 7 9 11 9 9 13 8 11 7 9 10 13 13 12 14 16 12 12 12 12 14 15 15 15 16 16 16 15 15 15
17 17 16 16 15 15 15 14 13 12 12 11 10 9 9 10 8 4 3 11 19 21 21 18 17 18 15 10 7 8 10 11 14 14 14 15 14 14 15 15 14 12 12 12 10 10 10 8 9 11 11 7 9 11 6 5 6 8 8 6 9 9 7 13 10 9 7 8 8 12 14 13 14 16 11 11 9 10 14 14 15 17 16 14 16 16 15 14
17 17 16 16 15 15 15 15 13 12 11 11 10 9 10 10 8 8 10 14 19 20 21 20 20 19 17 13 10 10 11 13 15 15 16 17 16 14 14 15 13 10 12 12 9 8 8 9 10 12 7 1 2 4 4 5 8 8 8 7 7 8 8 10 7 5 7 7 9 12 11 12 13 10 9 11 9 10 14 15 15 18 16 16 18 17 15 15
17 17 17 17 16 16 16 15 14 12 11 11 11 11 10 9 8 9 11 13 18 20 19 19 20 20 17 16 13 12 14 14 15 17 19 18 19 16 13 13 13 11 12 11 9 7 7 8 13 13 6 4 5 5 6 7 8 8 9 8 7 9 10 7 6 8 9 7 10 10 8 10 9 6 7 10 10 10 13 14 15 16 16 18 19 16 16 16
17 17 17 17 16 16 16 16 14 13 11 10 11 12 12 10 8 10 12 13 15 17 17 14 14 17 16 14 14 17 18 15 13 17 22 20 19 16 12 13 13 11 11 13 12 11 8 4 8 9 5 7 10 8 9 8 7 10 11 10 9 9 10 5 4 9 9 8 11 9 7 8 8 9 9 8 8 9 11 13 14 15 16 17 16 15 15 15
17 16 17 17 17 16 16 15 10 8 7 9 10 9 10 9 7 9 10 11 11 10 11 10 10 11 12 11 13 18 18 16 16 17 22 22 19 14 12 12 12 11 12 14 12 13 9 5 6 6 6 9 11 9 12 10 8 10 12 14 12 9 9 5 5 7 7 7 11 11 9 7 9 12 12 10 9 11 12 12 12 13 14 14 14 13 13 13
17 17 17 17 17 16 14 9 3 4 8 10 8 5 5 6 7 8 7 7 7 5 8 9 9 8 11 12 15 17 14 15 18 16 20 22 20 15 11 10 10 10 11 11 9 8 6 6 6 8 8 11 11 10 12 12 10 8 10 16 15 10 8 7 8 9 7 3 6 11 9 5 8 12 14 14 13 14 11 9 9 11 12 11 10 9 11 11
17 17 17 17 17 16 13 8 5 9 11 5 2 3 4 5 7 6 5 6 6 5 8 8 6 6 10 12 18 16 8 11 18 18 19 20 20 16 11 9 10 9 7 6 7 7 7 5 5 8 10 10 10 9 10 13 11 6 5 13 15 11 7 8 10 9 6 3 3 9 10 6 5 10 12 13 13 13 11 8 6 10 11 8 6 7 8 9
17 17 18 17 16 17 15 13 11 11 9 4 2 5 5 6 7 4 5 6 2 4 5 6 5 6 7 11 20 17 4 9 17 17 19 20 19 17 12 11 10 9 8 7 6 6 9 10 8 10 10 8 9 10 10 13 11 4 3 9 12 12 10 9 10 8 6 6 5 8 10 6 4 7 11 11 12 11 10 9 7 7 8 6 7 10 9 10
17 17 18 17 17 17 15 14 12 10 9 8 8 9 7 7 5 4 6 5 2 4 4 6 6 8 10 11 19 19 8 9 12 15 22 20 19 16 11 11 11 10 11 10 8 4 5 10 11 12 11 8 10 11 10 13 10 3 6 10 9 10 10 9 9 7 6 7 7 8 10 8 5 5 8 10 13 10 8 8 9 10 10 8 10 13 13 14
17 17 18 18 16 14 13 13 11 9 9 11 12 10 9 7 5 6 7 4 4 4 6 6 7 10 13 12 14 18 14 10 8 15 22 19 20 18 12 10 10 10 10 11 13 6 2 4 7 10 12 6 5 5 5 11 10 3 5 10 8 8 8 7 7 6 6 7 8 9 10 8 5 5 7 8 8 10 10 8 10 12 12 10 10 11 13 16
16 17 19 19 16 12 11 9 5 4 6 11 12 9 8 6 5 8 7 2 5 5 8 7 8 10 14 13 11 14 15 11 9 13 15 14 17 16 11 9 8 8 8 8 12 10 6 6 7 10 13 6 3 4 5 10 10 5 7 9 7 7 7 7 7 6 7 7 8 10 10 8 7 4 4 3 5 7 9 10 11 10 7 7 10 12 12 16
15 17 18 19 17 13 10 7 6 7 7 7 8 9 8 7 7 8 7 3 3 5 8 8 9 10 13 13 11 14 14 11 12 14 12 11 12 12 11 9 7 7 8 7 9 10 9 9 10 12 13 9 7 8 8 9 9 8 8 8 7 7 6 7 7 6 7 6 6 8 8 8 6 4 8 8 8 6 7 10 13 11 8 9 12 14 16 17
15 16 17 18 17 13 10 9 12 13 10 6 7 9 8 8 8 9 9 7 1 3 4 6 9 10 11 11 10 14 14 11 13 14 14 13 11 12 14 14 12 10 7 7 9 9 8 9 13 13 11 11 11 8 7 8 9 10 9 8 8 7 6 7 7 6 8 6 5 4 4 6 6 6 12 10 8 7 9 13 15 15 15 13 12 15 18 19
15 15 16 16 13 9 8 8 8 9 8 8 8 9 10 10 9 9 11 12 6 2 3 6 8 10 10 10 9 11 12 11 14 14 14 14 11 10 13 15 16 12 7 7 7 8 9 9 12 13 9 12 14 12 8 8 9 10 10 9 8 5 5 6 5 5 6 5 6 6 3 6 5 4 9 9 10 10 10 14 15 14 14 14 15 16 17 17
14 13 13 12 9 7 6 6 6 6 6 10 9 8 11 9 8 9 10 11 10 7 7 7 8 10 10 10 10 12 12 10 13 14 12 13 11 10 11 13 16 14 9 7 6 7 11 8 11 16 12 12 15 15 12 9 9 9 10 10 8 6 6 4 1 0 2 3 5 6 4 4 3 7 9 7 7 9 10 12 12 12 13 15 16 15 15 15
12 10 9 6 3 4 5 6 7 5 7 11 10 9 10 8 8 9 7 8 12 11 10 9 9 10 10 8 9 12 13 11 13 14 11 12 13 13 12 11 14 15 11 7 5 6 9 6 8 15 14 12 14 15 13 11 6 4 8 10 6 5 7 5 2 3 2 5 4 5 6 5 4 7 11 10 7 7 9 10 10 12 12 12 14 14 13 13
8 6 5 2 3 5 7 9 9 6 9 12 10 9 9 9 11 11 9 7 8 10 10 9 8 9 10 9 9 11 12 10 10 11 10 12 12 12 14 12 12 16 14 10 6 5 7 6 5 12 14 13 13 12 13 13 8 3 5 8 5 3 5 5 4 4 5 7 6 6 8 7 5 6 9 12 11 9 9 11 11 10 10 11 12 14 14 13
7 5 5 3 5 9 11 12 9 8 11 10 10 11 10 10 13 15 13 8 6 8 10 9 7 8 10 9 8 11 13 9 6 8 9 9 5 5 11 12 12 15 16 13 8 4 6 6 6 10 13 13 11 10 11 12 13 9 5 5 5 6 6 5 5 4 6 7 6 7 7 7 7 5 9 11 11 11 10 10 11 9 9 11 13 15 16 15
7 6 5 1 8 13 11 10 10 12 11 9 9 10 10 12 15 16 14 9 8 9 9 10 10 8 9 9 8 10 12 10 8 7 8 8 5 3 6 7 10 12 12 11 8 5 5 6 5 8 10 10 10 9 9 8 11 12 9 6 6 6 5 4 4 5 6 6 5 7 8 6 4 2 8 7 7 10 9 8 11 12 10 10 13 15 15 14
7 7 1 3 9 11 6 6 11 12 10 9 9 9 10 13 14 16 14 10 9 9 7 10 11 8 7 10 9 7 8 9 8 4 5 4 3 4 4 3 6 8 5 7 7 5 5 5 5 5 8 9 7 8 11 10 10 11 9 8 8 6 4 4 4 4 6 6 5 7 6 2 3 3 7 7 6 9 8 7 9 13 13 11 12 14 13 13
9 6 3 8 9 6 1 5 9 10 8 8 10 10 10 10 11 14 16 13 11 10 9 10 10 8 7 9 8 7 7 7 5 5 4 3 3 1 2 3 3 7 5 6 7 4 3 5 6 5 6 9 8 8 11 12 9 8 9 10 9 7 6 6 6 5 6 7 5 6 4 2 5 4 8 11 9 9 10 10 10 13 15 13 12 13 13 14
10 4 5 10 9 3 3 6 8 9 8 8 10 11 9 6 7 11 14 14 12 11 10 9 8 8 7 7 7 7 8 7 7 8 6 3 4 4 3 4 2 5 5 4 3 2 1 3 6 7 7 8 7 4 5 7 8 8 9 8 9 8 7 7 7 5 6 7 6 6 4 2 3 3 6 10 10 11 13 13 12 13 13 12 12 12 12 13
7 4 5 9 8 5 6 6 6 7 8 9 10 10 8 5 7 12 12 10 10 10 10 8 8 9 9 7 7 7 6 6 8 6 4 6 3 3 6 4 2 3 3 3 4 4 1 3 6 8 8 8 7 5 5 7 8 9 8 7 8 8 7 8 6 3 4 6 6 7 5 3 3 3 5 8 12 14 13 12 11 11 11 11 11 12 13 13
6 3 3 7 8 4 6 5 4 5 5 8 8 8 9 7 7 11 11 9 8 8 8 8 8 9 9 7 6 8 6 4 6 5 4 7 6 8 10 7 4 6 5 4 5 4 3 3 5 7 6 6 8 7 7 8 8 8 9 8 9 10 9 8 5 3 4 7 8 7 3 2 3 4 6 8 11 12 9 11 13 13 14 14 13 13 14 13
7 3 3 7 8 4 3 5 5 5 5 5 6 7 9 7 5 7 7 6 6 6 5 7 7 6 7 7 7 9 8 5 5 4 3 4 6 7 6 8 8 9 5 6 9 8 5 3 4 7 7 6 7 4 2 4 5 8 9 8 7 11 12 8 6 6 6 8 9 5 0 2 3 4 8 10 10 10 10 14 15 15 16 17 15 14 14 13
6 4 5 5 5 6 7 8 7 5 4 3 3 5 6 6 5 5 5 3 4 6 5 6 6 5 8 9 8 9 10 8 6 5 5 5 4 4 2 5 7 5 9 13 12 8 4 4 7 8 6 3 2 3 8 10 7 7 11 9 7 9 9 6 6 7 6 7 6 2 3 6 4 4 5 7 9 8 8 11 13 13 14 15 15 14 13 12
4 4 6 5 3 6 7 9 9 5 3 2 2 2 4 5 4 4 5 3 3 5 6 5 6 6 8 8 8 9 9 9 7 6 6 5 3 5 4 5 5 8 13 12 11 6 3 5 8 9 8 4 1 5 12 14 10 6 3 4 3 2 2 2 4 5 5 5 2 5 6 7 7 5 5 7 8 7 6 7 9 11 12 13 14 13 12 12
4 3 6 5 4 5 6 8 9 6 2 1 1 3 2 4 3 1 3 3 3 3 4 4 5 7 7 7 7 7 8 9 8 6 5 5 2 4 5 5 6 11 12 9 8 5 4 6 7 8 10 7 3 2 10 12 10 8 6 3 5 6 4 4 2 4 4 1 3 8 8 5 7 7 6 7 7 7 8 6 5 8 10 11 12 12 12 12
4 4 6 4 4 6 6 7 9 6 4 4 3 5 4 4 4 3 2 0 1 3 3 2 3 3 4 6 6 4 2 4 5 1 3 4 2 1 3 4 6 11 11 7 6 5 4 2 5 8 10 8 7 6 6 9 9 8 7 6 6 7 7 6 6 7 6 6 8 11 12 7 6 5 5 5 5 7 8 6 4 6 7 7 9 11 12 11
6 5 4 4 7 8 7 7 6 5 7 7 5 7 8 7 7 7 7 5 4 6 6 1 1 4 3 1 1 4 7 6 2 3 4 4 2 1 2 1 3 8 10 6 6 6 4 2 4 5 6 7 8 8 8 7 7 8 8 8 7 5 7 6 6 7 5 5 7 9 12 9 5 5 6 6 7 9 9 8 8 8 6 4 3 4 9 11
7 5 4 4 5 5 6 7 5 4 7 7 6 7 8 8 7 7 9 10 8 7 7 6 4 4 6 8 9 9 8 7 5 4 5 4 2 2 2 2 1 5 8 6 5 5 4 3 5 6 5 5 7 9 8 6 2 6 8 8 7 5 5 5 4 5 5 4 4 1 5 7 5 6 8 9 10 11 11 11 14 16 15 14 15 12 7 9
6 4 5 5 4 5 5 7 6 5 5 6 6 6 6 7 8 6 5 8 11 11 10 9 6 3 6 9 10 10 8 6 5 4 4 3 2 2 2 1 2 3 4 6 6 5 4 4 5 6 5 5 8 9 8 7 3 6 7 8 7 5 0 3 6 7 5 4 5 4 3 7 6 7 9 10 10 12 12 10 11 15 18 20 22 21 17 15
Wind_Direction
8 0 352 341 334 324 317 308 296 297 302 307 306 308 313 320 334 342 349 354 355 0 359 360 354 344 330 316 306 300 294 285 282 271 268 266 244 246 243 235 226 210 200 183 177 187 192 200 204 201 207 209 215 224 213 209 222 222 226 238 236 236 238 245 214 195 262 101 106 98 153 261 223 161 200 202 212 192 179 179 141 142 117 98 109 135 150 148
14 9 1 351 343 334 326 315 302 297 294 298 300 301 302 306 320 328 338 345 351 2 2 1 360 358 345 325 316 305 293 288 285 271 262 245 231 239 233 225 208 199 190 180 186 192 192 198 200 198 206 211 210 217 212 203 217 222 224 234 234 239 237 270 294 59 9 41 79 105 167 252 299 170 178 198 200 176 172 171 164 141 119 119 119 131 140 143
15 12 8 0 352 344 334 324 312 302 293 290 293 296 296 296 305 314 323 331 341 355 359 358 359 1 353 340 325 306 302 302 289 272 253 219 216 222 226 213 197 194 184 183 192 194 197 200 198 199 208 216 209 209 208 198 209 222 229 235 232 242 250 58 308 310 333 350 32 120 162 222 259 200 183 189 180 183 177 163 173 143 129 146 136 138 141 144
11 12 10 5 356 349 341 334 322 310 300 291 288 288 288 290 293 301 310 318 328 339 353 352 352 359 354 348 331 317 320 305 277 235 196 187 183 190 214 194 187 181 169 184 200 199 205 206 201 204 213 221 212 208 210 200 203 217 225 240 237 241 266 230 217 245 246 292 281 343 248 220 198 209 215 190 171 200 186 166 175 144 145 166 143 141 144 145
5 7 8 6 0 352 343 338 329 319 312 301 291 283 281 284 287 292 298 307 316 325 343 341 344 352 350 350 335 328 323 305 161 150 166 172 158 146 180 178 178 166 162 192 208 203 211 212 206 207 219 228 216 211 214 210 208 222 226 238 250 257 289 260 203 222 236 251 252 241 236 234 169 212 231 212 190 198 186 172 169 145 152 166 143 140 143 149
359 1 1 3 2 356 347 340 335 326 319 310 299 287 280 278 283 286 289 296 304 313 328 331 336 342 346 346 334 329 290 282 102 169 195 172 165 134 138 164 173 166 174 208 205 204 213 213 209 209 219 230 226 217 216 214 209 228 232 232 249 259 267 257 222 193 232 246 237 229 242 280 248 224 216 232 234 162 164 153 140 139 151 159 147 146 147 156
354 355 354 357 358 358 354 344 338 332 326 317 309 298 286 279 279 281 284 288 293 303 315 322 328 333 340 340 331 305 256 266 241 203 204 187 188 144 134 157 169 170 186 210 202 204 208 209 211 212 218 227 231 224 218 221 213 225 242 231 239 243 241 246 247 229 232 240 238 242 257 246 239 235 199 222 245 118 150 143 145 153 145 152 162 158 155 162
350 350 349 350 350 353 354 349 342 334 332 325 318 309 296 286 278 278 281 283 287 294 303 312 319 324 330 335 324 278 253 247 207 215 219 203 191 157 148 156 168 176 194 210 204 205 207 210 212 213 220 226 233 228 220 225 218 222 243 245 240 236 236 241 245 243 236 236 235 237 245 235 233 241 226 223 219 163 162 150 163 175 139 147 171 164 158 167
347 346 345 345 345 346 348 350 346 336 333 328 323 316 305 295 284 280 278 280 284 287 294 302 309 314 320 326 311 278 249 189 213 237 233 208 196 175 161 165 173 185 202 210 208 209 212 214 213 217 229 235 237 231 224 225 219 218 234 245 245 234 235 238 237 237 235 233 233 231 232 232 231 240 253 236 219 165 169 171 165 165 136 146 175 166 160 170
343 343 342 341 341 340 341 344 345 340 333 330 327 319 311 303 293 285 278 279 280 282 288 294 301 307 315 319 294 274 179 132 231 232 221 207 197 180 169 179 182 195 208 208 212 215 218 220 217 224 241 252 248 236 226 222 222 228 235 240 242 240 236 235 234 232 231 229 229 232 233 230 224 222 237 229 214 172 182 189 174 160 145 174 189 172 167 172
340 339 338 337 337 336 336 337 340 341 334 330 328 323 320 314 307 297 288 283 280 283 286 290 298 299 305 300 272 266 114 128 199 207 209 194 186 183 178 189 194 203 212 211 217 220 223 228 230 229 234 251 247 237 232 221 229 247 250 244 240 241 241 237 236 230 230 228 223 230 240 234 216 201 231 230 199 181 199 192 184 169 160 185 192 176 169 170
336 336 335 334 332 331 331 330 332 337 334 327 323 325 325 323 322 315 304 294 288 286 286 288 290 292 303 283 259 255 271 246 200 186 194 185 185 188 187 200 205 208 216 217 220 222 224 228 237 231 227 254 238 233 234 219 230 245 248 252 239 235 240 234 231 226 226 225 215 221 235 234 217 204 230 232 185 183 204 193 192 180 168 178 180 176 171 170
334 333 332 330 328 327 326 325 325 328 330 325 318 316 317 319 318 314 310 303 297 291 288 287 287 291 292 272 258 246 247 237 213 192 183 187 190 194 201 211 212 213 223 228 228 220 219 223 231 232 241 258 235 221 238 213 225 241 233 246 244 233 231 222 222 221 222 222 209 209 224 227 219 214 224 220 183 191 205 195 199 185 172 175 174 180 172 170
333 331 330 327 324 322 320 320 319 319 323 322 316 308 306 308 307 309 308 302 298 292 289 287 287 288 259 263 265 247 245 233 215 203 189 191 192 200 209 212 214 217 223 232 235 212 210 218 228 240 249 249 246 176 212 214 214 233 230 231 240 241 230 211 208 212 214 209 194 203 235 233 224 213 212 209 186 192 205 197 203 187 173 178 179 184 174 174
334 331 329 326 322 319 316 314 314 314 314 316 316 311 304 301 302 305 304 301 297 293 292 292 289 269 255 266 254 244 254 236 218 208 196 194 195 204 206 207 209 209 213 220 225 202 199 211 218 239 234 229 257 238 211 219 208 222 229 224 221 235 246 210 192 199 208 192 184 208 240 236 252 230 197 191 184 195 209 199 199 193 179 182 182 182 176 177
333 332 330 326 323 318 314 310 309 309 309 310 312 312 308 301 298 298 299 297 294 294 293 301 301 260 269 279 223 233 255 226 216 204 197 197 201 209 199 198 199 198 205 206 207 197 198 211 216 240 239 213 232 235 217 214 206 213 222 230 218 215 241 214 173 185 205 199 190 209 236 229 256 245 162 167 187 201 214 204 197 198 186 183 182 180 178 176
333 332 330 327 324 319 315 310 306 305 305 306 307 310 310 304 297 295 295 290 292 295 276 263 286 255 259 269 231 236 225 202 200 192 194 199 204 209 187 188 194 192 195 192 195 195 198 213 218 237 252 223 213 225 228 215 207 209 212 233 231 215 230 212 165 179 206 213 202 200 227 243 243 149 142 175 196 200 215 208 195 196 189 183 181 181 182 181
333 331 329 327 324 320 316 311 307 303 302 304 305 308 309 305 294 287 285 286 290 287 263 240 228 252 246 228 234 227 185 180 182 185 191 195 203 205 187 189 189 183 186 187 193 199 197 206 218 221 224 219 215 217 223 221 212 207 205 223 235 217 222 220 177 176 198 204 212 204 210 237 236 181 167 188 199 204 217 209 192 192 190 185 185 186 187 187
332 330 329 326 323 320 316 312 308 304 302 300 302 308 308 302 287 277 272 267 239 236 270 214 196 254 300 221 230 219 168 174 176 184 188 189 197 196 190 191 184 182 188 186 187 199 197 201 219 222 214 211 215 221 227 245 245 231 216 213 230 218 211 231 183 150 190 199 211 222 216 224 233 225 190 181 200 212 219 208 187 189 192 191 191 191 191 190
331 329 328 326 324 321 315 313 310 305 302 299 306 310 301 295 283 261 224 224 231 250 277 254 221 256 280 243 233 208 182 185 188 191 188 186 189 189 190 188 184 187 197 193 180 194 204 211 217 218 223 212 211 227 242 298 313 294 253 214 228 229 201 222 191 136 191 223 208 221 232 224 229 235 205 177 196 207 218 207 184 191 195 194 198 194 191 190
328 327 327 326 323 322 316 312 309 306 302 295 301 295 283 302 312 327 308 255 253 256 263 262 248 253 259 255 240 203 195 200 201 198 186 183 187 187 185 185 187 191 205 204 180 186 211 226 223 220 231 221 209 227 249 319 303 276 268 238 231 237 207 211 192 136 177 228 226 221 229 227 229 234 196 168 192 205 214 205 191 200 192 193 208 200 191 189
324 324 325 324 323 321 317 312 307 303 297 287 287 273 273 307 319 319 317 291 279 270 256 254 250 249 253 251 233 215 217 206 198 197 183 182 192 190 180 185 196 194 199 207 185 181 214 233 232 224 224 220 220 249 264 264 256 251 256 251 237 231 216 201 174 156 187 208 237 225 223 231 229 222 172 167 196 206 205 201 200 202 190 197 209 198 189 188
321 321 321 321 321 322 317 312 306 298 290 279 272 260 266 302 312 307 304 286 285 279 259 246 241 240 240 234 216 205 217 211 197 191 180 183 198 198 187 187 203 203 197 208 204 198 213 220 228 223 191 178 223 241 249 246 240 242 243 241 238 224 218 203 177 208 210 216 248 239 224 228 213 190 177 182 193 196 193 195 201 200 195 202 202 191 187 190
318 318 318 318 319 321 318 314 306 298 291 273 263 256 263 286 299 310 302 279 279 276 258 241 235 237 230 221 205 199 210 215 206 189 179 189 200 201 203 198 206 213 202 203 211 231 241 190 199 209 167 194 225 222 226 237 226 228 238 241 242 230 228 226 184 206 208 218 248 258 238 214 183 188 195 179 184 195 190 195 199 196 196 194 190 188 186 192
316 315 315 315 317 319 322 323 317 312 302 275 272 270 265 272 284 308 304 279 270 254 234 217 216 227 212 194 191 198 207 215 219 197 179 193 202 197 208 208 212 219 206 201 209 237 243 130 140 205 194 206 225 218 215 225 227 221 227 240 254 250 235 218 170 201 221 213 216 226 238 207 178 199 198 173 190 207 198 200 200 196 197 186 181 188 189 192
314 313 314 314 315 318 322 328 328 315 298 271 266 268 253 261 284 302 293 273 268 209 176 182 193 194 187 187 185 192 206 211 216 203 179 194 205 202 210 204 210 228 217 205 211 239 227 145 164 213 213 212 221 224 212 212 233 231 202 220 248 259 236 218 196 206 231 238 201 213 237 213 178 201 194 177 195 203 191 192 197 198 197 182 180 192 194 185
312 311 314 315 316 317 316 304 279 284 288 274 239 262 271 267 283 297 271 265 261 187 151 160 178 170 181 191 180 186 214 191 197 200 183 193 203 208 225 206 198 230 240 220 216 225 217 194 191 201 209 214 219 225 206 202 230 255 173 196 226 241 229 228 230 225 229 260 228 220 230 222 192 199 181 172 195 192 169 171 200 212 199 172 182 207 202 173
309 309 312 315 315 316 308 298 290 272 272 303 292 269 285 271 268 273 254 266 245 161 147 147 147 153 171 181 182 196 234 161 180 190 182 194 200 199 224 224 208 213 217 226 216 188 204 216 201 195 211 215 218 225 201 202 225 251 211 202 213 227 224 225 237 241 236 241 235 217 219 226 224 192 165 171 202 188 163 170 175 206 202 161 185 204 184 154
306 307 310 312 313 314 306 299 292 262 257 286 272 253 264 263 258 251 244 258 233 182 159 142 147 173 179 177 191 205 209 172 184 177 174 192 202 201 225 231 227 218 199 217 234 180 184 217 204 196 211 214 223 226 195 199 214 198 226 224 212 224 228 227 237 238 235 243 242 218 209 220 222 177 165 191 207 184 165 179 164 177 193 179 198 198 163 141
303 306 306 307 314 316 308 303 297 271 252 259 254 243 249 248 233 234 227 235 249 197 144 148 165 177 179 176 194 208 209 204 194 169 172 186 197 209 233 233 240 239 201 209 236 236 155 217 215 206 218 228 241 239 188 204 213 168 219 226 210 218 226 228 236 238 235 236 238 226 215 225 223 184 196 210 197 170 162 168 160 169 183 182 204 200 156 139
301 303 300 302 309 305 296 298 302 287 255 250 243 226 228 230 224 235 220 236 273 195 156 179 178 166 179 188 190 198 210 208 176 169 177 182 190 203 221 222 233 242 210 203 230 235 215 209 213 218 231 255 274 230 210 223 226 212 225 223 206 210 216 220 223 225 234 236 232 222 209 223 235 194 174 107 101 138 146 140 140 145 158 169 195 200 165 143
298 296 294 297 301 293 278 256 231 248 257 247 230 212 216 219 220 235 220 222 264 183 177 197 187 178 189 199 192 185 203 200 173 183 190 183 189 196 208 212 199 210 215 205 213 220 217 209 202 209 220 232 242 219 197 215 226 220 225 223 215 210 206 220 223 214 228 234 231 221 203 215 234 137 110 83 70 81 104 121 129 137 162 179 184 180 163 152
299 293 292 292 294 292 279 256 245 252 252 234 224 218 220 224 220 224 221 222 198 119 184 205 197 201 197 204 201 185 198 199 176 188 196 192 196 194 207 216 202 206 222 210 205 205 208 209 204 205 202 206 229 231 189 194 210 213 218 219 218 215 205 216 220 219 229 216 191 207 208 225 232 141 126 120 108 110 118 125 131 144 159 163 156 148 145 150
302 294 293 291 292 288 274 271 270 264 238 216 223 218 219 231 227 217 221 231 230 151 204 216 205 213 210 215 215 190 201 205 184 192 196 195 203 196 203 215 209 212 224 216 214 208 209 209 202 206 194 185 213 238 227 199 200 212 224 226 226 227 221 226 229 231 239 215 176 175 198 230 228 134 116 116 124 136 130 120 123 132 131 122 120 122 128 138
310 301 298 295 295 284 268 277 290 280 220 206 218 218 217 226 224 223 227 236 240 213 198 217 223 226 222 219 216 204 212 213 193 199 202 198 208 205 200 210 210 213 218 213 216 218 224 221 196 204 206 189 203 229 240 226 208 211 223 230 228 227 233 237 240 230 272 253 196 179 217 240 164 126 129 131 135 134 118 109 111 111 105 102 104 106 114 126
319 311 309 298 280 285 282 282 288 277 216 208 217 220 220 224 223 229 229 230 249 244 214 212 220 228 229 215 213 207 210 217 203 200 206 205 208 208 207 208 204 208 216 215 210 215 230 235 189 194 206 207 208 217 226 231 225 201 222 236 232 237 257 251 185 142 207 256 229 191 224 220 152 158 162 159 160 144 122 110 101 98 101 101 101 103 112 122
322 302 296 229 224 278 279 276 279 253 218 218 225 226 225 229 230 239 246 238 264 271 245 230 218 225 232 218 214 209 202 211 213 206 206 205 205 205 210 212 203 206 216 221 222 215 226 249 198 187 202 211 217 228 230 231 236 209 218 240 244 247 268 269 239 193 208 241 236 211 222 215 207 202 169 165 176 164 127 106 98 97 101 101 102 109 114 117
324 272 247 218 272 293 283 270 259 222 215 222 230 235 238 237 232 238 247 247 267 268 248 244 231 222 230 225 216 212 206 203 218 228 216 203 206 216 212 210 201 205 213 215 219 209 217 246 222 203 215 206 202 232 238 226 233 244 247 239 234 235 229 228 241 231 220 236 237 220 216 227 246 205 155 178 185 156 136 124 120 117 110 105 107 110 113 115
318 260 227 246 306 306 290 257 224 210 216 224 227 230 238 246 244 241 240 238 253 258 247 246 240 228 233 237 227 215 215 208 200 223 230 206 204 260 250 221 193 197 211 217 223 215 219 253 229 212 229 210 186 215 231 214 219 238 256 241 222 240 243 225 231 236 232 228 227 229 216 218 262 152 146 185 177 137 142 150 136 127 123 120 116 115 116 119
300 260 215 7 320 316 301 211 200 209 218 224 231 230 230 240 246 244 240 240 252 255 254 252 242 232 241 245 238 225 233 229 200 211 276 255 201 203 239 255 192 183 197 222 234 227 212 234 231 223 240 228 200 209 222 222 214 215 231 236 225 225 229 229 235 252 260 244 221 232 223 175 21 52 127 137 119 116 126 132 125 123 128 126 117 119 122 122
289 262 41 10 335 338 1 196 206 221 226 223 233 238 239 240 242 240 234 235 249 255 266 273 258 243 243 243 235 219 231 244 210 196 241 289 332 238 232 292 212 173 178 212 223 230 217 226 234 238 240 232 227 222 222 232 239 222 215 223 229 227 220 227 227 224 246 251 243 241 221 110 27 37 116 123 125 129 128 125 118 116 120 121 118 122 126 125
290 286 28 4 341 319 270 251 230 226 231 232 230 230 235 242 249 251 238 227 234 243 249 263 262 254 251 251 256 240 229 240 234 220 209 216 306 302 260 290 248 187 197 197 162 70 356 245 245 237 233 235 243 263 247 246 259 254 240 230 229 230 231 240 240 226 230 242 254 259 239 120 37 37 107 125 132 128 125 125 121 115 115 120 124 128 130 129
325 0 15 0 347 289 266 269 245 231 236 246 249 241 235 230 236 249 246 227 225 232 228 232 245 249 245 248 271 269 245 245 254 247 184 169 174 168 186 217 271 212 202 160 116 71 104 228 246 242 242 248 248 257 258 248 249 251 249 245 238 235 233 243 253 251 242 244 242 242 229 146 103 84 102 127 124 111 113 121 123 124 124 126 132 137 140 139
334 348 351 7 4 300 270 286 275 265 255 250 260 258 245 241 243 247 245 227 224 231 225 227 239 244 243 245 263 271 265 264 263 253 187 171 146 140 176 201 225 219 215 199 164 141 172 213 244 247 245 242 231 223 223 225 228 237 241 244 249 251 249 251 253 232 238 251 249 241 221 123 114 126 130 136 118 103 121 144 142 143 142 141 148 149 146 145
312 321 349 8 13 357 333 332 312 305 298 262 253 254 244 238 246 261 261 241 240 250 237 239 248 252 257 254 251 259 262 264 261 262 259 209 139 128 172 193 215 228 206 148 152 164 193 202 221 242 246 237 225 217 247 254 236 229 233 242 251 250 252 259 252 236 237 244 251 264 177 99 79 118 136 139 129 126 151 157 150 147 143 142 150 149 143 143
326 359 353 353 12 20 14 356 331 307 305 285 245 247 247 231 218 235 252 239 244 258 251 257 267 258 258 256 251 254 250 240 240 251 264 240 147 111 128 163 201 202 123 129 155 176 196 188 203 227 234 243 271 314 334 333 311 239 221 225 236 242 252 271 259 252 259 244 249 359 102 140 105 82 110 115 119 129 139 138 133 132 132 133 138 140 139 140
336 0 356 349 4 15 12 4 355 331 298 292 285 284 250 230 214 210 227 224 233 257 254 257 261 247 249 254 250 252 250 240 241 246 257 259 124 112 129 133 139 129 125 146 175 176 188 202 205 213 209 195 324 324 326 334 332 307 249 209 224 244 246 255 251 277 304 262 243 57 86 136 117 95 92 93 104 116 110 109 118 124 129 131 132 137 141 139
357 28 22 356 335 9 16 4 357 345 333 95 1 333 258 199 180 168 232 220 198 252 261 255 264 253 243 249 247 245 247 242 240 244 254 255 211 156 158 132 127 150 160 174 171 173 237 220 193 204 212 200 163 282 304 316 326 330 343 19 20 21 49 77 55 8 14 29 102 82 85 96 92 88 86 90 103 110 101 99 121 135 139 140 141 148 149 142
27 45 44 31 22 35 36 11 0 6 36 57 42 12 29 89 90 63 1 290 114 348 318 236 256 274 242 246 249 236 255 251 230 229 322 290 283 204 178 135 134 166 182 180 160 186 250 205 175 207 216 211 193 191 246 286 303 304 296 300 337 11 30 41 33 25 46 85 103 110 107 88 62 72 92 102 102 101 105 115 150 154 148 149 156 159 151 141
22 11 19 47 54 52 57 41 20 33 44 33 27 23 23 42 66 64 48 48 56 17 2 10 39 27 51 65 35 68 48 26 41 62 359 325 325 327 258 144 137 177 187 176 165 194 231 177 169 200 204 205 201 186 194 235 280 294 286 284 295 328 346 350 7 10 24 74 99 121 120 102 77 91 111 114 103 93 84 68 53 55 61 45 34 125 144 143
23 20 0 5 39 35 53 64 45 42 52 40 30 24 16 19 35 53 54 47 47 38 16 5 6 36 61 62 53 51 42 22 20 28 0 337 334 351 353 7 313 214 195 184 180 199 222 182 166 194 208 190 180 178 174 171 249 289 281 279 279 296 334 0 37 25 9 28 23 14 130 112 98 93 91 95 97 88 71 56 49 49 51 46 32 34 81 115
4 10 339 330 17 24 40 70 61 44 53 44 33 35 30 18 12 19 44 37 30 34 28 10 358 28 63 51 33 19 7 356 353 346 338 342 353 9 39 54 323 292 202 198 202 195 200 193 180 199 215 184 173 173 154 142 190 262 255 242 238 234 150 67 68 51 26 8 348 332 89 100 99 90 82 81 81 75 69 66 61 54 53 52 46 41 47 60